Location: Gebenbach
(49.5378°N, 11.8735°E)
Time: 08:24:36
(UTC+00:00)

IRIDIUM 33 DEB - Visible Passes

Search period start: 11 May 2021 00:00
Search period end: 21 May 2021 00:00
Orbit: 752 x 794 km, 86.4° (Epoch: 09 May)

Date Brightness Start Highest point End Pass type
(mag) Time Alt. Az. Time Alt. Az. Time Alt. Az.
11 May ? 20:03:45 10° NNE 20:07:36 20° ENE 20:10:43 13° ESE visible
11 May ? 21:43:29 10° N 21:48:46 68° W 21:51:06 33° SSW visible
11 May ? 23:27:21 10° WNW 23:28:21 11° WNW 23:29:22 10° W visible
12 May ? 19:30:22 10° NE 19:32:12 12° ENE 19:34:03 10° E visible
12 May ? 21:08:34 10° N 21:13:53 71° E 21:16:29 31° SSE visible
12 May ? 22:50:22 10° NW 22:53:55 19° WNW 22:56:52 12° WSW visible
13 May ? 20:33:51 10° N 20:38:52 41° ENE 20:41:52 22° SE visible
13 May ? 22:14:45 10° NNW 22:19:22 31° W 22:22:16 19° SW visible
14 May ? 19:59:23 10° NNE 20:03:42 25° ENE 20:07:17 13° ESE visible
14 May ? 21:39:30 10° NNW 21:44:40 53° W 21:47:40 24° SSW visible
15 May ? 19:25:25 10° NNE 19:28:24 15° ENE 19:31:21 10° E visible
15 May ? 21:04:30 10° N 21:09:51 89° E 21:13:05 25° S visible
15 May ? 22:46:52 10° NW 22:49:42 15° WNW 22:52:31 10° WSW visible
16 May ? 20:29:41 10° N 20:34:53 52° E 20:38:30 19° SSE visible
16 May ? 22:10:57 10° NNW 22:15:11 25° W 22:18:53 12° SW visible
17 May ? 19:55:06 10° NNE 19:59:47 31° ENE 20:03:56 12° SE visible
17 May ? 21:35:34 10° NNW 21:40:33 42° W 21:44:18 17° SSW visible
18 May ? 21:00:28 10° N 21:05:47 73° W 21:09:45 18° S visible
18 May ? 22:43:47 10° NW 22:45:25 11° WNW 22:47:05 10° W visible
19 May ? 20:25:34 10° N 20:30:53 66° E 20:35:12 16° SSE visible
19 May ? 22:07:14 10° NNW 22:10:59 20° WNW 22:14:43 10° WSW visible
20 May ? 19:50:52 10° N 19:55:51 38° ENE 20:00:39 11° SE visible
20 May ? 21:31:40 10° NNW 21:36:24 33° W 21:41:03 10° SW visible
